When you browse on this site, cookies collect data to enhance your experience and personalize the content and advertising you see.
Visit our Privacy Policy to learn more. By continuing to use the site, you agree to this use of cookies and data.
  • In Schweiz
  • Länderverzeichnis
  • Für 7 Tage
  • Wassertemperatur
  • Satellitenkarten
  • Wetterkarte
  • Widgets
  • user-avatar
    Anmelden

    Stündliche Wetter Plenykiv

    Heute, 19 Februar, Dienstag

    Zeit Temperatur Niederschläge Wind Luftdruck Luftfeuchtigkeit
    00:00 +2°C° 0 mm 2 m/S 735 mmHg 93%
    01:00 +2°C° 0 mm 2 m/S 735 mmHg 93%
    02:00 +1°C° 0 mm 2 m/S 735 mmHg 93%
    03:00 +1°C° 0 mm 2 m/S 734 mmHg 94%
    04:00 0°C° 0 mm 3 m/S 734 mmHg 94%
    05:00 0°C° 0 mm 3 m/S 734 mmHg 95%
    06:00 0°C° 0 mm 3 m/S 734 mmHg 95%
    07:00 0°C° 0 mm 3 m/S 734 mmHg 95%
    08:00 0°C° 0 mm 3 m/S 733 mmHg 95%
    09:00 +1°C° 0 mm 3 m/S 733 mmHg 88%
    10:00 +2°C° 0 mm 3 m/S 733 mmHg 82%
    11:00 +4°C° 0 mm 3 m/S 733 mmHg 76%
    12:00 +5°C° 0 mm 3 m/S 733 mmHg 71%
    13:00 +7°C° 0 mm 3 m/S 732 mmHg 66%
    14:00 +8°C° 0 mm 3 m/S 732 mmHg 61%
    15:00 +8°C° 0 mm 3 m/S 732 mmHg 63%
    16:00 +8°C° 0 mm 3 m/S 731 mmHg 65%
    17:00 +7°C° 0 mm 2 m/S 731 mmHg 68%
    18:00 +5°C° 0 mm 3 m/S 731 mmHg 69%
    19:00 +5°C° 0 mm 3 m/S 731 mmHg 71%
    20:00 +4°C° 0 mm 3 m/S 731 mmHg 73%
    21:00 +3°C° 0 mm 3 m/S 731 mmHg 74%
    22:00 +3°C° 0 mm 3 m/S 731 mmHg 75%
    23:00 +1°C° 0 mm 4 m/S 731 mmHg 77%

    Morgen, 20 Februar, Mittwoch

    Zeit Temperatur Niederschläge Wind Luftdruck Luftfeuchtigkeit
    00:00 +1°C° 0 mm 4 m/S 731 mmHg 79%
    01:00 +1°C° 0 mm 4 m/S 730 mmHg 81%
    02:00 0°C° 0 mm 4 m/S 730 mmHg 83%
    03:00 0°C° 0 mm 4 m/S 730 mmHg 84%
    04:00 0°C° 0 mm 4 m/S 730 mmHg 85%
    05:00 0°C° 0 mm 4 m/S 730 mmHg 86%
    06:00 0°C° 0.3 mm 4 m/S 730 mmHg 88%
    07:00 +1°C° 0.3 mm 5 m/S 730 mmHg 90%
    08:00 +1°C° 0.3 mm 5 m/S 730 mmHg 92%
    09:00 +1°C° 0 mm 6 m/S 731 mmHg 89%
    10:00 +2°C° 0 mm 6 m/S 731 mmHg 86%
    11:00 +2°C° 0 mm 6 m/S 731 mmHg 83%
    12:00 +2°C° 0.1 mm 6 m/S 731 mmHg 80%
    13:00 +3°C° 0.1 mm 6 m/S 732 mmHg 76%
    14:00 +3°C° 0.1 mm 6 m/S 732 mmHg 72%
    15:00 +3°C° 0.1 mm 6 m/S 732 mmHg 71%
    16:00 +3°C° 0.1 mm 6 m/S 732 mmHg 70%
    17:00 +3°C° 0.1 mm 6 m/S 732 mmHg 69%
    18:00 +2°C° 0.1 mm 6 m/S 732 mmHg 72%
    19:00 +2°C° 0.1 mm 5 m/S 733 mmHg 75%
    20:00 +1°C° 0.1 mm 5 m/S 733 mmHg 78%
    21:00 +1°C° 0.1 mm 5 m/S 733 mmHg 79%
    22:00 +1°C° 0.1 mm 6 m/S 733 mmHg 79%
    23:00 +1°C° 0.1 mm 6 m/S 733 mmHg 80%

    übermorgen, 21 Februar, Donnerstag

    Zeit Temperatur Niederschläge Wind Luftdruck Luftfeuchtigkeit
    00:00 +1°C° 0 mm 5 m/S 734 mmHg 82%
    01:00 +1°C° 0 mm 5 m/S 734 mmHg 84%
    02:00 0°C° 0 mm 5 m/S 734 mmHg 87%
    03:00 0°C° 0 mm 5 m/S 734 mmHg 88%
    04:00 0°C° 0 mm 5 m/S 734 mmHg 89%
    05:00 0°C° 0 mm 5 m/S 734 mmHg 90%
    06:00 -1°C° 0 mm 6 m/S 734 mmHg 90%
    07:00 -1°C° 0 mm 6 m/S 734 mmHg 89%
    08:00 -1°C° 0 mm 6 m/S 734 mmHg 89%
    09:00 -1°C° 0 mm 6 m/S 734 mmHg 86%
    10:00 +1°C° 0 mm 6 m/S 735 mmHg 83%
    11:00 +2°C° 0 mm 6 m/S 735 mmHg 79%
    12:00 +2°C° 0.1 mm 6 m/S 734 mmHg 80%
    13:00 +2°C° 0.1 mm 7 m/S 734 mmHg 80%
    14:00 +3°C° 0.1 mm 7 m/S 734 mmHg 81%
    15:00 +3°C° 0.2 mm 7 m/S 734 mmHg 80%
    16:00 +3°C° 0.2 mm 6 m/S 733 mmHg 80%
    17:00 +3°C° 0.2 mm 6 m/S 733 mmHg 79%
    18:00 +3°C° 0.3 mm 6 m/S 733 mmHg 81%
    19:00 +2°C° 0.3 mm 6 m/S 733 mmHg 83%
    20:00 +2°C° 0.3 mm 6 m/S 733 mmHg 86%
    21:00 +2°C° 0.6 mm 5 m/S 733 mmHg 88%
    22:00 +2°C° 0.6 mm 5 m/S 732 mmHg 90%
    23:00 +2°C° 0.6 mm 5 m/S 732 mmHg 92%

    22 Februar, Freitag

    Zeit Temperatur Niederschläge Wind Luftdruck Luftfeuchtigkeit
    00:00 +2°C° 0.5 mm 5 m/S 732 mmHg 92%
    01:00 +2°C° 0.5 mm 5 m/S 732 mmHg 93%
    02:00 +2°C° 0.5 mm 5 m/S 732 mmHg 93%
    03:00 +1°C° 0.7 mm 4 m/S 731 mmHg 94%
    04:00 +1°C° 0.7 mm 4 m/S 731 mmHg 95%
    05:00 +1°C° 0.7 mm 4 m/S 731 mmHg 95%
    06:00 -1°C° 0.5 mm 5 m/S 732 mmHg 93%
    07:00 -3°C° 0.5 mm 6 m/S 732 mmHg 90%
    08:00 -6°C° 0.5 mm 7 m/S 733 mmHg 87%
    09:00 -6°C° 0.2 mm 7 m/S 734 mmHg 83%
    10:00 -6°C° 0.2 mm 7 m/S 735 mmHg 79%
    11:00 -6°C° 0.2 mm 7 m/S 736 mmHg 75%
    12:00 -7°C° 0 mm 7 m/S 737 mmHg 71%
    13:00 -7°C° 0 mm 7 m/S 738 mmHg 67%
    14:00 -7°C° 0 mm 7 m/S 739 mmHg 63%
    15:00 -7°C° 0 mm 7 m/S 739 mmHg 61%
    16:00 -8°C° 0 mm 7 m/S 740 mmHg 60%
    17:00 -8°C° 0 mm 6 m/S 741 mmHg 58%
    18:00 -9°C° 0 mm 6 m/S 741 mmHg 57%
    19:00 -9°C° 0 mm 6 m/S 742 mmHg 55%
    20:00 -8°C° 0 mm 5 m/S 743 mmHg 54%
    21:00 -8°C° 0 mm 5 m/S 743 mmHg 53%
    22:00 -8°C° 0 mm 5 m/S 744 mmHg 52%
    23:00 -9°C° 0 mm 6 m/S 744 mmHg 51%

    23 Februar, Samstag

    Zeit Temperatur Niederschläge Wind Luftdruck Luftfeuchtigkeit
    00:00 -8°C° 0 mm 5 m/S 744 mmHg 51%
    01:00 -8°C° 0 mm 5 m/S 744 mmHg 50%
    02:00 -8°C° 0 mm 5 m/S 744 mmHg 49%
    03:00 -8°C° 0 mm 5 m/S 744 mmHg 49%
    04:00 -10°C° 0 mm 5 m/S 744 mmHg 49%
    05:00 -10°C° 0 mm 5 m/S 743 mmHg 49%
    06:00 -10°C° 0 mm 5 m/S 744 mmHg 51%
    07:00 -10°C° 0 mm 5 m/S 744 mmHg 52%
    08:00 -10°C° 0 mm 5 m/S 744 mmHg 54%
    09:00 -10°C° 0 mm 5 m/S 744 mmHg 52%
    10:00 -8°C° 0 mm 5 m/S 745 mmHg 50%
    11:00 -8°C° 0 mm 5 m/S 745 mmHg 49%
    12:00 -7°C° 0 mm 5 m/S 744 mmHg 46%
    13:00 -7°C° 0 mm 5 m/S 744 mmHg 43%
    14:00 -6°C° 0 mm 5 m/S 744 mmHg 41%
    15:00 -6°C° 0 mm 5 m/S 744 mmHg 41%
    16:00 -7°C° 0 mm 5 m/S 744 mmHg 41%
    17:00 -7°C° 0 mm 5 m/S 743 mmHg 42%
    18:00 -7°C° 0 mm 4 m/S 744 mmHg 43%
    19:00 -7°C° 0 mm 4 m/S 744 mmHg 45%
    20:00 -7°C° 0 mm 3 m/S 744 mmHg 47%
    21:00 -7°C° 0 mm 3 m/S 744 mmHg 48%
    22:00 -6°C° 0 mm 2 m/S 744 mmHg 49%
    23:00 -6°C° 0 mm 2 m/S 744 mmHg 50%

    24 Februar, Sonntag

    Zeit Temperatur Niederschläge Wind Luftdruck Luftfeuchtigkeit
    00:00 -7°C° 0 mm 2 m/S 744 mmHg 52%
    01:00 -7°C° 0 mm 2 m/S 744 mmHg 53%
    02:00 -7°C° 0 mm 2 m/S 744 mmHg 54%
    03:00 -7°C° 0 mm 2 m/S 744 mmHg 55%
    04:00 -7°C° 0 mm 2 m/S 744 mmHg 56%
    05:00 -8°C° 0 mm 2 m/S 744 mmHg 57%
    06:00 -8°C° 0 mm 2 m/S 744 mmHg 57%
    07:00 -8°C° 0 mm 2 m/S 745 mmHg 57%
    08:00 -8°C° 0 mm 2 m/S 745 mmHg 57%
    09:00 -7°C° 0 mm 2 m/S 745 mmHg 51%
    10:00 -7°C° 0 mm 3 m/S 745 mmHg 45%
    11:00 -6°C° 0 mm 3 m/S 746 mmHg 38%
    12:00 -5°C° 0 mm 3 m/S 745 mmHg 37%
    13:00 -5°C° 0 mm 4 m/S 745 mmHg 35%
    14:00 -4°C° 0 mm 4 m/S 745 mmHg 34%
    15:00 -4°C° 0 mm 4 m/S 745 mmHg 35%
    16:00 -4°C° 0 mm 4 m/S 745 mmHg 36%
    17:00 -4°C° 0 mm 4 m/S 745 mmHg 37%
    18:00 -5°C° 0 mm 3 m/S 745 mmHg 40%
    19:00 -5°C° 0 mm 3 m/S 745 mmHg 43%
    20:00 -5°C° 0 mm 2 m/S 745 mmHg 46%
    21:00 -5°C° 0 mm 2 m/S 746 mmHg 47%
    22:00 -5°C° 0 mm 2 m/S 746 mmHg 47%
    23:00 -5°C° 0 mm 2 m/S 746 mmHg 48%
    Mehr zeigen